Overview Statistics Trail Chart Weather Telemetry Raw packets
 

This is the latest recevied weather packets stored in our database for station/object W8RSN-13. If no packets are shown the sender has not sent any weather packets the latest 10 day(s).

<< 99 100 101 102 103 104 105 >>
Time Temp. Humidity Pressure Rain* Wind** Luminosity Snow
1787943871 36.11° C 35% 1014.9 hPa - - - -
1787943570 36.11° C 36% 1014.9 hPa - - - -
1787943269 36.11° C 36% 1014.9 hPa - - - -
1787942968 36.11° C 34% 1014.9 hPa - - - -
1787942667 35.56° C 35% 1014.8 hPa - - - -
1787942366 35.56° C 35% 1014.8 hPa - - - -
1787942065 35.56° C 35% 1014.8 hPa - - - -
1787941764 35.56° C 35% 1014.7 hPa - - - -
1787941463 35° C 36% 1014.8 hPa - - - -
1787941162 35° C 36% 1014.8 hPa - - - -
1787940861 35° C 37% 1014.8 hPa - - - -
1787940561 35.56° C 36% 1014.8 hPa - - - -
1787940260 35.56° C 36% 1014.7 hPa - - - -
1787939959 35° C 35% 1015 hPa - - - -
1787939658 35° C 34% 1014.8 hPa - - - -
1787939357 35° C 34% 1015 hPa - - - -
1787939056 35° C 36% 1014.8 hPa - - - -
1787938775 34.44° C 37% 1015 hPa - - - -
1787938474 33.89° C 38% 1015.1 hPa - - - -
1787938173 33.33° C 38% 1015.1 hPa - - - -
1787937873 33.33° C 39% 1015.3 hPa - - - -
1787937572 32.78° C 44% 1015.3 hPa - - - -
1787937271 32.22° C 46% 1015 hPa - - - -
1787936970 32.22° C 47% 1015.2 hPa - - - -
1787936669 31.67° C 48% 1015.2 hPa - - - -

* Rain since midnight (hover to see other rain measurements)
** Current wind speed in m/s (hover to see current wind gust speed)